Home   Weather   Córdoba   Past weeks

Flag for Argentina Past Weather in Córdoba, Córdoba, Argentina — Yesterday and Last 2 Weeks

63 °F

More clouds than sun.

Feels Like: 63 °F
Forecast: 49 / 71 °F
Wind: 17 mph from Northeast

Location: Cordoba Aerodrome

Current Time: Oct 22, 2016 at 3:00:51 PM

Latest Report: Oct 22, 2016 at 2:00 PM

Visibility: N/A

Pressure: 30.01 "Hg

Humidity: 64%

Dew Point: 50 °F

Location of CórdobaLocation

Past Weather in Córdoba — Graph


Córdoba Temperature Yesterday

Maximum temperature yesterday: 66 °F (at 3:00 PM)
Minimum temperature yesterday: 48 °F (at 6:00 AM)
Average temperature yesterday: 56 °F

High & Low Weather Summary for the Past Weeks

High82 °F (Oct 11, 2:00 PM)100% (Oct 11, 12:00 AM)30.24 "Hg (Oct 11, 12:00 AM)
Low39 °F (Oct 8, 4:00 AM)21% (Oct 9, 6:00 PM)29.62 "Hg (Oct 16, 5:00 AM)
Average62 °F71%29.96 "Hg
* Reported Oct 7 2:00 PM — Oct 22 2:00 PM, Córdoba, Weather by CustomWeather, © 2016

Note: Actual official high and low records may vary slightly from our data, if they occured in-between our weather recording intervals... More about our weather records


Córdoba Weather History for the Previous 24 Hours

Scroll right to see more
Time TempWeatherWind HumidityBarometerVisibility
2:00 PM
Sat, Oct 22
63 °FMore clouds than sun.17 mph64%30.01 "HgN/A
1:00 PM63 °FOvercast.21 mph64%30.04 "HgN/A
12:00 PM61 °FMore clouds than sun.20 mph68%30.04 "HgN/A
11:00 AM61 °FMore clouds than sun.16 mph68%30.04 "HgN/A
10:00 AM59 °FSunny.17 mph72%30.07 "Hg10 mi
9:00 AM59 °FSunny.15 mph72%30.04 "Hg10 mi
8:00 AM57 °FSunny.16 mph72%30.04 "Hg10 mi
7:00 AM57 °FSunny.12 mph72%30.01 "Hg10 mi
6:00 AM57 °FClear.10 mph72%30.01 "Hg10 mi
5:00 AM55 °FClear.8 mph77%30.01 "Hg10 mi
4:00 AM55 °FClear.9 mph77%30.01 "Hg10 mi
3:00 AM55 °FPassing clouds.7 mph77%30.04 "HgN/A
2:00 AM57 °FPassing clouds.10 mph72%30.07 "HgN/A
1:00 AM57 °FClear.7 mph72%30.07 "Hg10 mi
12:00 AM57 °FPassing clouds.9 mph72%30.09 "HgN/A
11:00 PM
Fri, Oct 21
52 °FPassing clouds.6 mph88%30.09 "HgN/A
10:00 PM57 °FPassing clouds.8 mph77%30.09 "HgN/A
9:00 PM59 °FPassing clouds.12 mph72%30.09 "HgN/A
8:00 PM61 °FPassing clouds.10 mph68%30.07 "HgN/A
7:00 PM63 °FPartly sunny.8 mph64%30.04 "HgN/A
6:00 PM64 °FPartly sunny.7 mph60%30.01 "HgN/A
5:00 PM64 °FPartly sunny.9 mph60%30.04 "HgN/A
4:00 PM64 °FPartly sunny.9 mph60%30.04 "HgN/A
3:00 PM66 °FPartly sunny.13 mph56%30.07 "HgN/A
Weather by CustomWeather, © 2016

See weather overviewHow to use our weather pages